Probability
3 6 10 12 10 7 6 7 7 5 5 6 6 5 4 1 1 1 1 0 0 0 1 2 2 1 0 0 0 0 0 0 0 0 0 0 0 0 0 0 0 0 0
4 7 11 12 10 7 7 7 7 5 4 5 5 5 4 2 1 1 1 1 0 0 0 1 1 1 0 0 0 0 0 0 0 0 0 0 0 0 0 0 0 0 0
7 10 13 14 13 11 10 9 9 8 6 4 5 5 5 3 2 1 1 1 1 0 0 0 0 0 0 0 0 0 0 0 0 0 0 0 0 0 0 0 0 0 0
11 14 16 18 19 18 16 13 12 12 9 5 5 6 5 4 3 2 1 1 1 1 1 1 1 0 0 0 0 0 0 0 0 0 0 0 0 0 0 0 0 0 0
14 16 18 21 24 25 22 17 15 14 11 7 5 6 6 4 3 3 2 1 2 2 3 3 2 1 0 0 0 0 0 0 0 0 0 0 0 0 0 0 0 0 0
12 15 18 23 27 28 25 20 16 15 12 8 6 6 6 4 2 2 3 3 3 4 5 4 3 2 1 0 0 0 0 0 0 0 0 0 0 0 0 0 0 0 0
9 12 18 24 28 29 27 23 19 16 12 9 6 4 4 4 2 1 3 4 3 4 5 5 5 4 2 1 0 0 0 0 0 0 0 0 0 0 0 0 0 0 0
7 10 18 24 26 26 24 22 21 18 14 10 7 4 5 5 4 2 3 4 4 5 6 7 7 6 4 2 1 1 1 0 0 0 0 0 0 0 0 0 0 0 0
7 10 16 21 22 21 19 20 20 19 15 12 9 6 5 6 6 4 3 4 5 6 7 8 9 8 6 3 2 2 1 0 0 0 0 0 0 0 0 0 0 0 0
7 9 13 16 17 16 16 17 18 16 14 11 9 6 4 5 6 6 4 3 5 6 8 8 9 9 6 4 3 3 1 0 0 0 0 0 0 0 0 0 0 0 0
5 6 9 11 12 12 13 14 14 11 9 8 7 5 3 3 4 5 3 2 3 4 6 7 8 8 6 4 3 2 1 0 0 0 0 0 0 0 0 0 0 0 0
3 4 5 5 7 9 11 11 9 7 6 6 5 4 4 3 3 2 1 0 1 1 3 4 5 5 5 5 4 2 1 0 0 0 0 0 0 0 0 0 0 0 0
1 2 2 1 2 4 8 9 6 3 4 5 5 4 4 2 1 1 0 0 0 0 1 1 1 2 3 3 3 2 1 0 0 0 0 0 0 0 0 0 0 0 0
0 0 0 0 0 1 4 5 4 2 2 4 4 3 2 1 0 1 1 0 0 0 0 0 0 0 1 2 2 2 1 0 0 0 0 0 0 0 0 0 0 0 0
1 0 0 0 0 0 1 2 2 1 0 2 3 2 1 0 1 2 2 1 0 0 0 0 0 0 0 0 1 1 1 0 0 0 0 0 0 0 1 0 0 0 0
2 1 0 0 0 0 0 0 0 0 0 1 2 1 0 1 2 3 2 1 0 0 0 0 1 1 0 0 0 0 0 0 0 0 0 0 0 0 0 0 0 0 0
2 1 0 0 0 0 0 0 0 0 0 1 1 1 1 2 3 3 1 0 0 0 0 0 1 1 0 0 0 0 0 0 0 0 0 0 0 0 0 0 0 0 0
3 2 1 0 0 0 0 0 0 0 0 0 1 2 2 3 3 2 1 0 0 0 0 0 1 1 0 0 0 0 0 0 0 0 0 0 0 0 0 0 0 0 0
3 2 1 0 0 0 0 0 0 0 0 0 1 2 2 2 2 1 0 0 0 0 0 0 0 0 0 0 0 0 0 0 0 0 0 0 0 0 0 0 0 0 0
3 2 1 0 0 0 0 0 0 0 0 1 2 2 1 1 1 0 0 0 0 0 0 0 0 0 0 0 0 0 0 0 0 0 0 0 0 0 0 0 0 0 0
3 2 1 0 0 0 0 0 0 0 0 1 2 2 1 0 0 0 0 0 0 0 0 0 0 0 0 0 0 0 0 0 0 0 0 0 0 0 0 0 0 0 0
3 3 1 0 0 0 0 0 0 0 0 1 2 2 1 0 0 0 0 0 0 0 0 0 0 0 0 0 0 0 0 0 0 0 0 0 0 0 0 0 0 0 0
3 3 2 1 0 0 0 0 0 0 0 0 1 1 1 0 0 0 0 0 0 0 0 0 0 0 0 0 0 0 0 0 0 0 0 0 0 0 0 0 0 0 0
1 2 2 1 0 0 0 0 0 0 0 0 0 0 0 0 0 0 0 0 0 0 0 0 0 0 0 0 0 0 0 0 0 0 0 0 0 0 0 0 0 0 0
0 1 1 1 0 0 0 0 0 0 0 0 0 0 0 0 0 0 0 0 0 0 0 0 0 0 0 0 0 0 0 0 0 0 0 0 0 0 0 0 0 0 0
0 0 1 1 1 0 0 0 0 0 0 0 0 0 0 0 0 0 0 0 0 0 0 0 0 0 0 0 0 0 0 0 0 0 0 0 0 0 0 0 0 0 0
Wind_Speed
3 4 9 9 9 8 8 8 8 8 8 9 9 9 9 9 10 9 9 9 9 10 10 10 10 10 10 11 11 12 12 12 12 12 11 11 12 12 12 11 10 7 12
6 6 9 8 9 8 8 8 7 8 8 8 8 8 9 9 9 9 8 9 9 9 10 10 10 10 10 10 10 11 11 12 12 11 10 8 10 11 12 11 10 7 12
7 6 8 8 8 8 8 7 7 7 8 8 8 8 8 8 9 8 8 8 8 9 9 10 10 10 10 10 10 11 11 12 11 10 8 5 6 11 12 11 11 12 12
7 6 6 7 8 8 8 8 7 7 7 7 7 7 8 8 8 8 8 8 8 8 9 10 10 10 10 9 9 10 11 11 11 9 5 4 4 11 12 11 12 12 13
5 5 6 7 8 8 8 7 7 7 7 7 7 7 7 8 8 8 8 7 7 8 9 10 10 10 9 9 9 10 11 11 11 7 5 4 3 10 12 11 11 12 12
4 4 5 7 7 7 7 7 7 7 7 7 7 7 7 7 8 8 8 7 8 9 9 10 10 9 9 9 10 10 10 11 9 5 4 4 3 9 11 11 11 11 11
4 3 5 7 7 7 7 7 7 7 7 7 7 7 7 7 8 8 8 8 8 9 9 10 10 10 9 9 10 10 11 10 6 4 4 3 4 10 11 11 11 11 11
4 3 4 7 7 7 6 7 7 7 7 7 7 7 7 7 8 8 8 8 8 9 10 10 10 10 9 9 10 10 10 9 7 5 4 3 6 10 11 10 10 10 10
3 2 2 4 5 7 6 6 7 7 7 7 7 7 6 6 7 7 8 8 9 9 9 10 10 10 10 10 10 11 11 10 6 3 4 3 8 10 11 10 10 10 10
2 1 2 2 3 3 4 6 6 6 6 6 6 6 5 5 6 7 7 8 8 9 9 9 9 9 9 10 11 11 11 9 5 4 2 4 10 11 11 10 11 11 11
2 1 2 2 2 2 3 4 5 6 6 6 6 6 5 2 2 3 5 7 8 9 9 8 8 8 8 8 10 11 8 4 4 3 2 7 10 11 11 11 11 11 11
2 1 1 1 1 2 2 2 2 2 3 3 3 3 2 2 2 3 5 6 7 7 7 7 7 7 6 3 6 8 3 4 4 2 3 8 10 11 11 11 11 11 12
3 2 1 2 2 1 2 2 1 1 2 2 3 3 3 2 2 2 2 2 3 4 3 4 4 2 3 3 3 4 4 3 2 2 3 8 10 11 11 11 11 11 11
3 3 2 2 2 2 1 2 2 2 2 2 3 4 3 2 2 2 2 2 2 2 2 2 2 3 3 4 5 5 4 3 2 2 3 7 9 10 10 10 10 10 10
3 3 3 3 3 2 1 1 2 2 2 2 3 3 4 4 3 3 2 2 2 2 3 3 3 3 3 3 4 5 5 4 4 3 2 6 8 8 9 9 10 10 11
4 3 2 3 3 3 2 1 2 2 2 2 2 4 4 4 4 3 3 2 2 2 2 3 3 3 2 3 4 5 5 5 4 4 3 3 6 7 8 8 9 10 10
5 3 2 3 3 3 2 2 1 1 2 2 2 3 3 4 4 4 3 3 3 3 3 3 3 3 3 3 3 4 4 4 4 4 3 2 3 5 7 7 8 9 9
4 4 3 2 2 2 2 2 1 1 1 2 2 2 3 4 4 4 3 3 3 3 3 3 3 3 2 3 3 2 3 3 4 4 3 3 3 2 4 7 7 8 8
5 5 4 3 2 2 2 2 2 2 1 1 2 2 3 3 4 4 3 3 3 3 3 3 2 3 3 3 3 3 2 3 3 4 4 3 3 3 2 5 6 6 6
5 5 4 3 3 2 2 2 2 1 1 1 1 2 3 3 4 4 3 3 3 4 3 3 3 3 3 3 4 3 2 2 2 3 3 3 3 3 3 3 2 3 5
4 4 4 4 3 3 2 2 2 1 1 1 1 2 2 2 4 4 3 3 3 3 4 5 4 4 3 2 3 3 3 3 2 1 2 2 2 3 3 3 2 2 2
5 5 5 5 5 4 3 2 1 2 1 1 1 2 2 2 3 3 4 3 3 3 4 4 4 3 2 2 3 3 2 1 1 1 1 2 2 2 2 3 3 3 2
5 6 5 5 5 4 2 2 2 2 2 1 1 1 2 2 2 2 3 3 3 3 4 4 5 5 4 2 2 3 4 4 1 1 0 1 2 2 2 2 3 3 3
6 5 5 5 4 4 4 4 5 3 2 2 2 2 2 2 2 2 3 3 4 3 4 4 4 3 5 4 2 1 1 3 4 2 1 0 1 2 2 2 2 2 3
5 5 5 5 5 4 5 5 5 3 2 1 1 2 2 2 2 3 3 3 3 3 4 4 4 4 3 4 3 3 2 1 2 3 2 1 0 1 2 2 2 2 2
3 4 4 5 5 5 5 5 5 5 3 3 3 3 2 1 1 2 3 3 3 3 3 4 4 4 3 3 3 3 4 3 3 3 3 3 2 1 1 1 2 2 2
Wind_Direction
171 170 152 141 132 126 121 118 119 117 114 110 112 113 111 111 109 107 108 110 109 109 108 105 105 101 98 97 96 96 94 91 88 87 84 85 89 90 88 84 83 79 86
157 162 150 144 137 133 129 123 122 124 121 117 117 118 118 117 116 113 112 111 111 113 113 111 108 104 102 101 99 99 98 94 91 86 78 76 86 91 90 88 88 89 91
143 151 151 143 139 137 135 132 128 127 127 125 122 121 122 122 121 120 117 115 115 116 115 112 109 105 105 103 99 99 98 93 89 85 80 71 84 92 93 91 90 89 91
143 144 149 146 142 142 141 138 134 131 131 130 126 126 127 127 127 123 119 120 120 119 117 112 109 108 107 103 100 98 96 90 85 80 73 71 82 94 94 92 92 91 89
138 138 150 147 147 146 146 144 140 136 135 134 131 132 133 133 131 128 125 123 121 119 119 117 115 111 108 107 103 100 95 90 83 77 72 73 76 94 92 91 90 90 87
130 131 147 148 150 147 147 146 144 141 140 140 137 136 137 139 137 133 129 127 126 124 124 123 119 115 111 109 105 100 93 90 82 78 77 75 79 96 94 91 92 92 90
127 136 149 149 150 149 149 151 150 149 147 146 146 144 144 144 142 138 133 131 129 128 125 125 123 120 115 111 106 98 94 92 86 84 85 79 89 98 96 95 93 96 92
130 139 148 149 148 148 151 154 155 155 152 150 150 147 144 146 145 142 138 138 134 132 127 128 127 123 116 111 108 98 92 92 93 92 87 84 99 102 99 96 94 95 96
119 131 144 152 152 152 152 160 160 158 154 148 148 146 141 140 144 145 138 140 137 134 132 130 129 125 117 113 109 100 94 90 87 84 91 88 104 104 101 99 96 97 96
103 129 141 130 143 151 161 163 160 159 153 146 142 137 129 129 136 141 137 137 138 138 136 134 129 125 116 111 108 102 96 88 82 77 77 96 102 103 99 98 96 96 96
94 134 134 124 139 143 159 157 152 155 155 148 143 137 122 109 116 134 139 137 139 140 139 137 130 124 113 107 107 102 93 84 85 73 76 100 107 105 102 100 98 97 94
152 217 136 118 144 157 156 136 145 149 152 143 141 135 128 127 136 138 140 142 140 138 139 140 129 118 110 99 101 101 90 87 82 71 83 101 110 109 107 104 100 97 95
185 200 166 144 149 166 155 150 148 144 153 149 148 149 136 121 116 106 118 133 131 126 121 126 113 102 112 115 108 105 102 92 85 69 85 102 112 113 110 108 104 102 98
205 209 186 165 159 144 164 170 163 156 167 171 164 160 147 138 137 138 136 134 130 127 126 117 118 112 115 120 120 116 110 104 95 78 84 100 106 113 116 114 110 106 103
199 208 191 172 171 151 146 191 170 166 169 179 164 166 163 155 157 154 151 143 136 131 135 134 130 126 124 123 124 124 121 116 105 90 74 94 101 109 117 119 116 112 108
195 208 201 184 170 158 159 187 185 177 156 167 172 173 169 161 157 154 153 150 144 139 136 141 142 133 130 124 121 122 125 125 116 105 86 81 91 104 114 119 121 117 113
189 196 201 184 162 157 157 174 175 181 156 162 174 167 163 157 156 154 150 154 151 139 127 119 123 116 121 119 117 123 124 127 128 120 108 91 80 85 105 119 121 119 115
173 180 181 169 153 149 146 143 156 141 148 157 156 160 158 152 150 148 147 153 147 128 122 120 115 108 113 117 110 116 121 125 130 129 116 105 92 76 84 103 112 117 117
174 173 174 164 163 157 143 138 142 128 142 145 145 155 155 149 149 148 150 149 141 125 124 129 111 112 119 117 113 100 106 122 131 125 119 117 113 103 88 88 91 98 108
175 171 169 159 162 145 128 114 108 107 124 117 137 155 152 147 143 139 142 148 144 134 132 126 119 99 112 127 111 88 74 93 117 129 135 127 125 120 108 101 87 84 96
166 169 172 163 167 155 152 151 148 156 143 135 161 136 138 143 146 142 149 153 152 149 155 147 131 118 107 113 99 80 36 42 83 121 135 131 129 126 121 119 112 95 86
178 178 179 181 179 177 182 176 162 149 151 167 166 137 139 147 155 155 152 159 156 148 154 154 140 130 130 139 128 125 112 14 3 63 144 155 150 131 131 132 128 123 111
189 187 189 189 184 181 166 132 99 73 60 77 151 160 162 161 164 161 161 156 161 160 166 168 156 146 152 159 143 146 152 184 181 348 272 166 161 154 155 147 143 140 133
201 195 191 186 183 180 165 162 161 168 182 208 193 178 170 166 168 171 164 168 172 168 169 177 169 155 153 165 160 124 136 146 151 155 318 285 180 174 175 164 152 151 146
200 192 190 182 184 184 184 183 179 185 185 147 140 162 173 178 176 176 166 165 168 170 171 171 165 163 163 166 166 155 127 92 124 145 179 223 261 225 192 180 168 165 161
197 187 183 184 191 191 192 193 193 188 176 165 176 189 192 199 203 186 166 168 171 171 177 177 169 169 171 164 166 164 156 160 171 154 161 180 200 249 221 196 184 177 172